TITAN 3C TRANSTAGE DEB, 26526

Orbit data source: Space-Track

TITAN 3C TRANSTAGE DEB, 26526 is space debris in HEO originally from a launch on Tue, 21 Dec 1965 UTC launched from the Air Force Eastern Test Range (AFETR). Debris objects in space refer to the collection of defunct objects orbiting the Earth. Examples of debris include non-operational satellites, rocket bodies, and fragments generated from explosions, collisions, or faulty payload assembly.

Loading next visibility...
Identifier
26526, 1965-108AM
Orbit
HEO
Last TLE update
8 months ago
Origin
Manufacturer
Unknown
Mission
Spacecraft
Bus & Motor
Unknown
Mass
Unknown
Launch date (UTC)
1965-12-21 (60 years ago)
Launch vehicle
Unknown
Launch site
Air Force Eastern Test Range (AFETR)
Object type
Payload
Rocket body
Debris
Shape & HBR
Unknown
Radar Cross Section
Small (<0.1 m²)

Expand to show TLE details & history

TLE from 8 months ago
0 TITAN 3C TRANSTAGE DEB
1 26526U 65108AM  24298.24131281  .00000584  00000-0  35549-2 0  9993
2 26526  27.0953 271.9805 6511654 243.4914 289.0941  3.11000988 61163
Epoch: 2024-10-24T05:47Z
TLE epoch observation values (Epoch: 2024-10-24T05:47:29.426Z)
Latitude
26.55104°
Longitude
-105.36752°
Altitude
17,158.249 km
Speed
3.711 km/s
True Right ascension
00h 58m 31s
True Declination
26° 30' 34"
Sunlit
Object was in daylight at epoch
Visualization orbit readout
Latitude
14.65461°
Longitude
171.84561°
Altitude
1,696.358 km
Speed
8.867 km/s
Apparent Right ascension
21h 17m 51s
Apparent Declination
-29° 21' 11"
Sunlit
Object is in daylight
Visualization observer readout
Local Sidereal Time
18:07:08
Azimuth
139.422° SSE
Elevation
7.79°
Doppler factor
1
Orbital elements
Apogee altitude
26,363.083 km
Perigee altitude
538.959 km
Semi-major axis
19,829.158 km
Eccentricity
0.65117
Inclination
27.0953°
RAAN
271.9805°
Arg. of periapsis
243.4914°
True anomaly
Unknown
Mean anomaly
289.0941°
Eccentric anomaly
Unknown
Mean motion
0.7773 °/min
Orbital period
463.14 mins
BSTAR
0.0035549
Loading maneuver chart data...
Loading SW <> Apogee altitude chart data...

TITAN 3C TRANSTAGE DEB Visibility forecast

Observer location: undefined°, undefined°

Span
Click to sort rows by Start time (UTC) header in descending order
Start Az.
Max El. time (UTC)
Max El. Az.
Max El.
End time (UTC)
End Az.
160 mins2025-07-03 18:35:28.403Z201.735° SSW2025-07-03 20:59:28.403Z171.021° S19.63°2025-07-03 21:15:28.403Z132.469° SE
|